Current weather by "City, St" or "zip code"  
 

Current Conditions: Decatur Airport, IL

Overcast


53.0 F

Last Updated on Oct 21 2021, 11:54 am CDT
Humidity: 69%
Wind Speed: W 18.4 G 28.8 mph
Barometer 30.02 in
Dewpoint: 43.0 F
Visibility: 10.00 mi
Precip: --
Heat Index: NA
Wind Chill: 48 F
Current conditions at:

Decatur Airport, IL (KDEC)

Lat: 39.8308 Lon: 88.87192

Local Radar Image active severe weather and emergency alerts image image weather storm and storm spotter reports image weather observation monitoring service image
Local
Radar
Active
Alerts
Storm Reports Obs
Monitoring

Sign-up For Email & Text Message Weather Alert Notification Services



Advertise Here

Observation History for Decatur Airport, IL


Time Wind
(mph)
Vis
(mi)
Weather Precip (in) Temperature (F) Relative
Humidity
Wind
Chill
(F)
Heat
Index
(F)
Pressure
Air Dwpt altimeter
(in)
sea level
(mb)
Rmks
11:54 am CDT W 18.4 G 28.8 10.00 Overcast -- 53.0 43.0 69% 48 NA 30.02 1016.3
10:54 am CDT W 19.6 G 28.8 10.00 Mostly Cloudy -- 52.0 42.1 69% 46 NA 30.01 1016.1
9:54 am CDT W 16.1 G 26.5 10.00 Partly Cloudy -- 51.0 43.0 74% 46 NA 29.99 1015.4
8:54 am CDT W 15.0 G 26.5 10.00 Overcast -- 51.0 45.0 80% 46 NA 29.98 1015.0
7:54 am CDT W 11.5 10.00 Mostly Cloudy -- 51.0 46.0 83% 47 NA 29.96 1014.5
6:54 am CDT W 10.4 G 19.6 10.00 Fair -- 51.0 46.9 86% 47 NA 29.96 1014.2
5:54 am CDT SW 8.1 10.00 Fair -- 52.0 46.9 83% 49 NA 29.94 1013.6
4:54 am CDT W 9.2 10.00 Fair -- 54.0 48.0 80% 51 NA 29.94 1013.7
3:54 am CDT W 12.7 G 20.7 10.00 Partly Cloudy -- 56.0 48.9 77% 53 NA 29.94 1013.5
2:54 am CDT W 15.0 G 21.9 10.00 Mostly Cloudy -- 60.0 53.1 78% 57 NA 29.94 1013.2
1:54 am CDT W 9.2 10.00 Mostly Cloudy -- 65.0 62.1 90% NA NA 29.92 1012.7
12:54 am CDT SW 9.2 10.00 Overcast -- 66.0 61.0 84% NA NA 29.92 1012.7
11:54 pm CDT SW 10.4 10.00 Overcast Trace 65.0 60.1 84% NA NA 29.94 1013.4
10:54 pm CDT SW 9.2 10.00 Light Rain Trace 65.0 60.1 84% NA NA 29.95 1013.8
9:54 pm CDT SW 12.7 10.00 Mostly Cloudy -- 67.0 57.0 71% NA NA 29.96 1014.2
8:54 pm CDT S 15.0 10.00 Mostly Cloudy -- 68.0 57.0 68% NA NA 29.95 1013.8
7:54 pm CDT S 12.7 10.00 Fair -- 68.0 57.0 68% NA NA 29.95 1014.1
6:54 pm CDT S 12.7 10.00 Fair -- 69.0 57.9 68% NA NA 29.97 1014.6
5:54 pm CDT S 17.3 10.00 Fair -- 72.0 57.0 59% NA NA 29.95 1014.1
4:54 pm CDT S 12.7 10.00 Fair -- 74.0 57.0 56% NA NA 29.96 1014.3
3:54 pm CDT S 19.6 G 26.5 10.00 Fair -- 75.0 57.0 54% NA NA 29.98 1014.9
2:54 pm CDT S 13.8 10.00 Fair -- 76.0 55.9 50% NA NA 30.00 1015.5
1:54 pm CDT S 13.8 10.00 Fair -- 75.0 55.0 50% NA NA 30.02 1016.5
12:54 pm CDT S 6.9 10.00 Fair -- 72.0 54.0 53% NA NA 30.05 1017.3

Regional Weather Observation


Decatur Airport, IL (KDEC)

Overcast
53.0 F

Bloomington/Normal, Central Illinois Regional Airport at Bloomington-Normal, IL (KBMI)

Overcast
50.0 F

Springfield - Abraham Lincoln Capital Airport, IL (KSPI)

Overcast
53.0 F

Taylorville, Taylorville Municipal Airport, IL (KTAZ)

Overcast
NULL F

University of Illinois - Willard, IL (KCMI)

Overcast
54.0 F

Rantoul National Aviation Center Airport, IL (KTIP)

Overcast
51.0 F

Advertise Here


Advertise Here